TimeCDT,TemperatureF,Dew PointF,Humidity,Sea Level PressureIn,VisibilityMPH,Wind Direction,Wind SpeedMPH,Gust SpeedMPH,PrecipitationIn,Events,Conditions,WindDirDegrees,DateUTC
12:54 AM,69.1,46.0,44,29.86,10.0,East,6.9,-,N/A,,Mostly Cloudy,90,2013-05-16 05:54:00
1:54 AM,66.0,46.9,50,29.87,10.0,NE,4.6,-,N/A,,Mostly Cloudy,50,2013-05-16 06:54:00
2:54 AM,68.0,46.0,45,29.85,10.0,East,5.8,-,N/A,,Mostly Cloudy,100,2013-05-16 07:54:00
3:54 AM,66.9,46.9,49,29.86,10.0,ESE,8.1,-,N/A,,Mostly Cloudy,120,2013-05-16 08:54:00
4:54 AM,64.0,48.9,58,29.86,10.0,SSE,10.4,-,N/A,,Scattered Clouds,150,2013-05-16 09:54:00
5:54 AM,63.0,50.0,63,29.86,10.0,East,5.8,-,N/A,,Mostly Cloudy,80,2013-05-16 10:54:00
6:54 AM,63.0,51.1,65,29.87,10.0,ENE,5.8,-,N/A,,Overcast,70,2013-05-16 11:54:00
7:54 AM,64.9,54.0,68,29.88,10.0,East,4.6,-,N/A,,Overcast,80,2013-05-16 12:54:00
8:54 AM,66.0,55.9,70,29.91,10.0,SE,5.8,-,N/A,,Mostly Cloudy,130,2013-05-16 13:54:00
9:54 AM,68.0,60.1,76,29.91,10.0,SSE,9.2,-,N/A,,Overcast,150,2013-05-16 14:54:00
10:54 AM,72.0,62.1,71,29.89,10.0,SSE,6.9,-,N/A,,Mostly Cloudy,160,2013-05-16 15:54:00
11:54 AM,75.0,63.0,66,29.88,10.0,SE,6.9,-,N/A,,Mostly Cloudy,130,2013-05-16 16:54:00
12:54 PM,78.1,64.0,62,29.85,10.0,SE,11.5,-,N/A,,Overcast,140,2013-05-16 17:54:00
1:54 PM,79.0,64.0,60,29.83,10.0,SE,12.7,-,N/A,,Overcast,130,2013-05-16 18:54:00
2:54 PM,79.0,64.0,60,29.83,10.0,SSE,13.8,-,N/A,,Overcast,160,2013-05-16 19:54:00
3:54 PM,82.0,66.0,58,29.82,10.0,South,11.5,19.6,N/A,,Mostly Cloudy,180,2013-05-16 20:54:00
4:54 PM,80.6,62.6,54,29.84,10.0,South,9.2,-,N/A,,Scattered Clouds,190,2013-05-16 21:54:00
5:54 PM,80.1,61.0,52,29.79,10.0,South,9.2,-,N/A,,Mostly Cloudy,170,2013-05-16 22:54:00
6:54 PM,78.1,63.0,60,29.80,10.0,SSE,8.1,-,N/A,,Mostly Cloudy,160,2013-05-16 23:54:00
7:54 PM,77.0,63.0,62,29.81,10.0,SSE,5.8,-,N/A,,Overcast,150,2013-05-17 00:54:00
8:54 PM,75.9,63.0,64,29.83,10.0,SE,8.1,-,N/A,,Overcast,140,2013-05-17 01:54:00
9:54 PM,73.0,57.0,57,29.85,10.0,SE,8.1,-,N/A,,Overcast,130,2013-05-17 02:54:00
10:54 PM,72.0,59.0,64,29.83,10.0,SE,6.9,-,N/A,,Scattered Clouds,140,2013-05-17 03:54:00
11:54 PM,68.0,60.1,76,29.83,10.0,SSE,9.2,-,N/A,,Partly Cloudy,160,2013-05-17 04:54:00